Theta_e
329 329 329 328 328 329 329 328 328 328 328 328 328 328 328 328 327 325 324 325 326 326 325 323 323 322 322 321 317 315 314 308 302 304 306 304 302 301 301 300 299 300 301 302 303 304 304 305 305 306 307 308 309 309 309 309 309 309 308 308 308 307 307 307 307 307 307 307 307 307 307 306 306 306
329 329 329 329 329 330 329 329 329 328 327 328 328 328 328 328 328 326 325 326 326 326 325 323 323 322 321 321 318 316 314 307 302 304 305 303 301 301 300 300 300 301 302 303 304 305 306 306 307 308 308 309 309 309 310 309 309 309 308 308 308 308 308 308 307 307 307 307 307 306 307 306 306 306
329 329 329 329 329 330 330 329 329 328 326 327 327 327 328 328 327 328 326 325 326 326 324 323 323 321 321 320 319 318 314 307 302 303 305 303 301 300 300 300 300 302 303 303 304 306 306 307 308 308 309 309 310 309 309 309 309 309 308 308 308 308 308 307 307 307 307 307 307 306 306 306 306 306
329 329 329 329 329 329 329 330 329 327 326 327 327 327 328 327 327 328 326 325 326 325 324 323 322 321 321 321 320 319 316 309 303 303 305 303 300 300 300 300 301 303 303 304 305 306 307 308 308 309 309 309 310 309 309 309 309 309 309 308 308 308 308 308 307 307 307 307 307 306 306 306 306 306
329 329 330 330 329 329 329 330 328 327 327 326 326 326 326 326 326 326 326 324 324 323 323 323 321 320 321 321 321 321 318 312 306 303 304 304 300 299 301 301 301 303 304 305 306 307 308 308 308 309 309 310 310 309 309 309 309 309 309 308 308 308 308 308 307 307 307 307 307 307 307 307 307 306
329 329 329 330 329 329 329 329 328 327 327 325 325 325 325 325 325 324 324 324 323 322 321 321 321 320 321 321 320 320 319 315 309 304 304 304 301 299 300 301 301 303 304 306 306 307 308 308 309 309 309 309 309 309 309 309 309 308 308 308 308 308 308 308 307 307 307 307 307 307 307 307 307 307
329 329 329 329 329 328 329 329 328 328 327 325 325 324 323 323 323 323 323 323 322 322 320 319 320 320 320 320 319 319 318 316 311 307 305 304 303 300 299 300 301 302 304 305 306 307 308 308 308 309 309 309 309 309 309 309 309 308 308 308 308 308 308 308 307 307 307 307 307 307 307 307 307 307
329 328 329 329 329 328 328 329 328 328 327 326 324 324 323 322 322 321 321 321 321 321 319 318 318 318 319 319 318 318 317 316 314 310 306 305 304 303 300 300 301 301 303 304 305 306 306 307 308 308 308 308 308 309 308 309 308 308 308 308 308 308 308 308 308 307 307 307 307 307 307 306 306 306
329 329 329 329 329 329 329 329 329 328 328 326 325 324 323 322 321 320 320 320 320 320 319 318 315 315 317 317 317 317 317 315 314 312 308 305 305 304 302 301 301 301 302 303 304 305 306 306 306 307 307 307 308 308 308 308 308 308 308 307 307 308 307 308 308 308 307 307 307 307 307 306 306 306
328 329 329 329 329 329 329 329 329 329 328 327 326 326 324 323 321 320 319 319 318 318 319 318 315 313 314 315 316 316 316 315 314 313 310 307 305 305 304 303 302 302 302 302 302 303 304 305 305 305 306 306 306 306 306 307 307 307 307 307 308 308 308 308 308 308 308 308 307 307 307 306 306 305
328 328 328 329 329 328 329 329 329 329 328 327 327 327 326 324 322 321 319 317 317 317 318 317 315 314 313 313 314 314 314 313 313 313 312 309 307 306 306 305 305 304 303 303 303 303 303 304 304 305 305 306 306 307 307 307 307 307 307 307 308 308 308 309 309 309 309 308 308 308 307 307 306 305
327 328 327 328 328 328 329 329 329 329 328 328 328 327 327 326 324 322 320 317 316 316 316 316 316 315 314 313 312 311 311 312 312 312 312 311 311 309 308 307 306 306 305 304 304 305 305 305 305 306 306 307 307 307 307 307 307 307 307 308 309 310 310 311 311 311 311 310 310 310 309 308 308 307
327 327 327 327 327 328 328 328 329 329 327 328 328 328 327 326 326 325 321 318 317 317 316 316 316 315 314 314 312 311 310 311 312 312 310 310 312 312 310 309 307 307 306 306 306 306 306 306 306 306 307 307 307 307 307 308 309 310 312 313 313 314 314 314 314 314 314 314 314 313 312 311 310 308
326 327 327 327 327 327 327 328 329 329 327 327 328 328 327 326 327 326 322 318 318 318 317 316 316 316 316 316 314 313 312 312 312 312 310 310 312 311 310 311 310 308 307 307 308 308 308 308 308 308 308 309 310 311 313 313 314 315 315 315 315 315 315 315 316 316 316 316 316 315 315 314 312 311
326 327 327 327 327 327 327 327 328 328 328 328 328 328 327 327 327 326 323 321 321 321 320 319 318 317 319 318 316 314 313 312 311 311 311 310 312 312 311 313 313 310 309 309 310 311 311 310 310 312 313 313 315 315 315 315 315 315 315 315 315 314 314 314 314 315 315 315 315 315 315 315 314 313
326 326 327 326 326 326 326 327 327 327 328 328 328 328 328 327 326 325 324 323 323 322 322 322 320 320 321 321 317 315 313 312 310 310 310 310 311 312 312 313 314 312 309 309 311 313 313 312 314 315 315 315 316 315 315 314 313 313 312 312 311 311 312 312 313 313 313 313 313 313 314 314 314 314
326 326 326 325 325 326 326 327 327 327 327 327 328 328 327 326 326 325 323 322 322 321 321 322 321 320 320 319 317 315 312 311 310 310 310 310 311 312 313 314 314 310 308 310 314 316 316 315 316 317 316 315 314 313 312 311 309 308 307 307 308 310 311 311 311 311 311 310 310 310 310 311 311 312
326 326 325 325 325 325 326 326 326 326 326 326 326 324 323 323 322 322 320 319 319 319 320 321 320 320 318 316 315 313 310 310 311 312 312 312 312 313 313 313 312 311 311 314 316 319 319 316 314 316 316 314 312 311 309 307 305 305 305 306 309 310 310 309 308 307 307 306 306 307 307 307 308 309
326 326 326 326 326 326 326 326 326 325 324 321 319 318 316 316 316 316 317 318 317 316 316 317 317 316 315 312 311 310 308 309 312 313 313 313 313 313 313 313 313 312 312 313 315 317 317 314 313 314 313 311 309 308 307 305 303 304 306 309 309 308 306 306 305 304 304 305 305 305 306 306 307 308
326 326 325 326 326 327 327 326 324 323 320 317 314 313 311 310 311 311 311 314 314 312 312 313 312 312 312 311 312 312 311 312 313 313 313 312 313 315 315 314 313 311 310 309 311 313 313 312 311 310 310 308 306 305 306 305 303 305 309 308 304 302 302 302 302 303 304 304 305 305 305 306 307 308
325 325 325 325 325 325 326 323 320 318 317 314 311 310 308 307 307 306 306 308 309 308 308 308 307 308 309 310 311 311 311 312 312 313 313 312 312 315 316 315 312 310 309 307 306 308 310 309 308 307 307 307 305 304 306 307 306 308 307 303 298 299 301 302 303 304 304 305 305 305 305 305 306 307
322 323 324 323 322 323 322 320 316 315 314 312 310 309 308 307 305 303 304 306 306 306 306 307 307 307 306 307 308 307 307 308 309 311 312 310 310 311 312 312 310 309 309 306 304 305 307 307 306 306 305 305 305 306 308 309 308 306 304 301 300 300 301 303 303 304 304 304 304 304 304 304 305 305
317 318 319 319 319 319 318 315 313 312 312 312 311 312 311 308 304 303 305 305 305 305 306 308 309 307 306 307 308 307 306 306 307 308 308 306 307 307 308 309 308 308 310 306 302 304 305 304 305 305 304 304 305 307 307 307 305 304 303 304 304 302 301 302 303 303 303 303 303 303 303 304 304 303
311 311 312 313 315 315 313 311 310 310 311 312 312 312 311 309 306 304 305 305 306 305 305 305 306 305 304 305 305 304 303 303 303 304 304 303 304 305 306 306 305 305 308 304 300 301 303 303 303 304 303 304 305 305 305 304 303 304 304 304 304 303 302 302 302 302 302 302 302 302 302 303 303 302
305 306 307 308 310 311 309 309 310 310 310 311 311 311 311 309 307 305 304 304 304 304 303 302 302 301 301 301 301 301 301 301 301 301 301 300 301 302 303 304 303 304 305 301 297 299 302 302 302 302 303 303 303 303 303 303 302 303 303 303 303 303 302 301 301 301 301 301 301 301 301 302 302 301
302 302 302 303 306 308 307 307 308 309 309 309 310 309 308 307 305 304 303 303 302 301 301 300 300 300 299 299 299 299 299 299 298 298 298 298 297 298 298 299 301 302 302 299 296 297 300 302 301 301 301 302 302 302 302 302 303 302 302 302 302 302 301 301 301 301 300 300 300 300 300 301 301 300
300 300 300 300 302 304 305 305 305 306 306 306 306 305 304 303 303 302 302 301 301 300 300 299 299 299 298 298 297 297 296 296 296 296 296 296 296 296 296 296 297 298 298 297 296 296 298 299 300 299 300 301 301 301 302 302 302 301 301 301 301 301 301 301 300 300 300 300 300 300 299 300 299 299
301 301 301 301 301 302 302 303 303 303 303 303 302 302 301 301 301 301 300 300 300 299 299 298 297 297 296 296 296 295 295 295 295 295 295 295 296 296 296 296 296 296 296 296 296 296 297 298 299 299 299 299 300 300 301 301 301 300 300 300 300 300 301 300 300 300 300 300 299 299 299 298 298 297
301 301 301 302 302 302 302 302 302 302 301 301 300 300 300 300 300 300 299 299 299 299 297 296 295 295 295 295 294 294 294 295 295 295 295 295 296 296 296 296 296 296 296 296 297 297 297 298 298 299 299 299 299 300 300 300 300 300 300 300 299 300 300 300 300 300 299 299 299 298 298 298 297 296
301 301 302 302 302 302 302 302 301 300 300 300 300 300 300 299 299 299 299 298 298 297 295 294 294 294 293 293 294 294 294 294 294 295 295 295 295 296 297 297 297 296 296 296 296 296 296 297 297 298 299 299 299 299 299 299 299 299 299 299 299 299 299 299 299 299 299 299 299 298 298 297 296 296
299 300 300 300 300 300 300 300 300 299 299 299 299 299 299 299 298 297 297 296 295 294 294 293 293 293 293 293 293 294 294 294 294 294 294 295 295 295 297 298 298 297 297 296 296 296 296 296 296 297 298 299 299 299 299 299 299 299 298 298 298 298 299 298 298 298 298 298 298 298 297 296 296 295
298 298 298 298 298 298 297 297 297 297 298 298 298 298 298 297 296 295 295 294 294 293 293 293 293 293 293 293 293 293 293 294 294 294 294 294 294 295 296 297 297 297 297 296 296 296 295 296 296 297 297 298 298 298 298 298 298 298 298 297 298 298 298 298 298 298 297 297 297 297 296 296 295 295
298 298 297 297 297 297 297 296 296 296 296 295 295 295 295 294 294 293 293 293 293 292 292 292 292 293 293 292 293 293 293 293 293 294 294 294 294 295 296 296 296 296 296 296 296 295 295 295 296 296 296 296 296 296 297 297 297 297 297 297 297 297 297 297 297 297 296 296 296 296 295 295 294 294
296 296 296 296 296 296 296 295 295 294 294 294 293 293 293 292 292 292 292 292 292 292 292 292 292 292 292 292 292 292 292 292 292 293 293 293 294 294 295 295 295 295 295 296 295 295 295 295 296 296 296 295 295 294 295 296 296 296 296 296 296 297 297 296 296 296 296 296 295 295 295 294 293 293
295 295 295 295 295 294 294 294 294 293 293 293 292 292 292 292 292 292 292 292 292 292 292 292 292 292 292 292 291 291 291 291 292 292 292 292 293 294 294 294 294 294 294 294 295 294 294 294 295 296 296 296 296 295 294 294 295 296 296 296 296 296 296 296 296 296 296 296 295 295 295 295 294 293
296 295 295 294 294 294 293 293 292 292 292 292 292 291 291 291 291 291 291 291 291 291 291 291 292 292 292 291 291 291 291 291 291 291 291 292 292 293 293 293 293 293 294 294 294 294 294 294 294 295 296 297 297 296 295 294 294 294 295 295 295 295 296 296 296 296 295 295 295 295 295 295 294 293
296 296 295 294 293 293 293 293 292 292 291 291 291 291 291 291 291 291 291 291 291 291 291 291 291 291 291 291 291 291 291 291 291 291 291 292 292 293 293 293 293 293 294 294 294 294 294 294 294 294 295 295 295 295 295 295 294 294 294 294 294 295 295 295 296 295 295 295 295 295 295 295 294 294
296 295 294 293 293 293 292 292 292 291 291 291 290 290 290 290 290 291 291 291 291 291 291 291 291 291 291 291 291 291 291 291 291 291 291 292 292 292 293 293 293 293 293 294 294 294 294 294 294 294 294 294 294 294 295 295 294 293 293 293 294 294 294 295 295 295 294 294 294 294 294 294 293 293
295 295 294 293 292 292 292 291 291 291 290 290 290 290 290 290 290 290 290 290 291 291 291 291 290 290 290 290 290 291 291 291 291 291 291 291 291 292 292 292 292 293 293 294 294 294 294 294 294 294 294 294 294 294 294 294 294 293 293 293 293 293 294 294 295 295 295 295 294 294 294 293 293 293
294 294 293 292 292 292 291 291 290 290 290 290 290 290 290 290 290 290 290 290 290 290 290 290 290 290 290 290 290 290 291 291 291 291 291 291 290 291 291 292 292 293 293 293 294 294 294 294 293 293 293 293 293 293 293 293 293 293 293 293 293 293 293 294 294 294 294 294 295 295 294 294 294 294
293 292 292 292 291 291 290 290 290 290 290 290 290 290 290 290 290 290 290 290 290 290 290 290 290 290 290 290 290 290 290 290 290 290 290 290 291 291 291 292 292 293 293 293 293 294 294 294 293 293 293 293 293 293 293 294 294 294 293 293 293 293 293 293 293 293 293 293 294 294 294 294 294 294
292 292 291 291 291 290 290 290 290 290 290 290 290 290 290 290 290 290 289 290 290 290 290 290 290 290 290 290 290 290 290 290 290 290 290 290 291 291 292 292 292 292 292 293 293 293 293 293 293 293 293 293 294 294 294 294 294 294 293 293 293 293 293 292 292 292 292 292 293 293 294 294 294 294
292 292 291 290 290 290 290 290 290 290 290 290 290 290 290 290 289 289 289 289 289 290 290 290 290 290 290 290 290 290 290 290 290 290 290 290 290 291 292 292 291 291 292 293 293 293 293 293 293 293 294 294 294 294 294 294 294 294 294 294 294 293 293 293 293 293 292 292 292 292 292 293 293 294
292 291 291 290 290 290 290 290 290 290 290 290 290 290 290 290 290 290 290 289 289 290 290 290 290 290 290 290 290 290 290 289 289 290 290 290 290 290 291 291 291 292 292 293 293 293 293 293 294 294 294 294 294 294 294 294 294 294 294 294 294 294 294 293 293 293 293 293 293 293 292 292 293 293
292 291 290 290 290 290 290 290 290 290 290 290 290 290 290 290 290 290 290 290 290 290 290 290 290 290 290 290 290 290 290 290 290 290 290 290 290 290 290 291 291 292 292 293 293 293 293 293 294 294 294 294 294 294 294 294 294 294 294 294 294 294 294 294 294 294 294 293 293 293 293 293 292 292
Wind_Speed
15 16 15 14 14 13 17 20 18 16 14 12 14 16 15 13 9 7 7 8 10 13 13 12 12 15 14 11 11 10 9 10 10 10 10 9 9 10 11 11 11 11 11 11 11 11 10 10 10 10 10 9 9 8 7 6 4 3 2 1 1 1 1 2 2 3 3 4 5 5 6 7 8 9
14 14 14 14 14 13 15 19 19 18 16 14 15 16 16 15 12 9 7 7 10 13 13 12 11 14 17 14 12 11 11 10 11 11 10 10 10 11 11 12 12 12 12 11 11 10 10 10 10 10 9 9 8 7 6 5 4 3 2 2 2 2 3 4 4 4 5 5 5 6 6 7 8 9
12 14 15 15 14 13 13 16 18 19 18 16 15 16 16 15 14 13 9 6 8 12 14 14 12 14 17 17 14 12 12 11 11 12 11 11 11 12 12 13 13 13 13 12 12 11 10 10 10 10 9 9 8 7 7 6 5 4 5 5 6 6 6 7 7 7 8 8 8 8 8 8 9 9
11 12 13 13 13 13 13 16 17 18 18 17 16 16 16 15 15 14 11 7 6 10 13 14 15 17 17 17 16 14 13 12 12 12 12 12 13 13 13 14 14 14 14 13 13 12 12 11 11 10 10 9 9 9 9 8 7 7 8 8 9 9 10 10 10 11 11 11 12 12 11 11 11 11
11 12 13 12 11 13 16 17 15 15 17 17 16 16 15 16 16 16 14 9 5 8 13 14 15 19 18 15 17 16 14 14 13 14 14 14 14 15 15 15 15 16 15 14 14 14 13 13 12 12 11 11 11 11 11 11 11 10 11 11 12 13 13 14 14 14 14 15 15 15 15 15 15 14
11 13 14 12 13 16 19 19 16 15 16 16 16 16 16 15 17 18 16 12 7 7 11 14 15 18 18 15 16 18 17 16 15 15 16 15 15 17 17 16 17 16 16 15 15 14 14 14 13 13 13 13 13 13 14 14 14 14 14 15 15 16 17 17 18 18 18 18 18 19 19 19 19 18
12 14 14 13 15 17 18 18 17 17 16 15 15 15 18 18 17 18 16 13 10 7 9 15 15 16 19 17 16 18 18 17 16 15 16 16 16 18 18 18 18 17 16 15 15 15 15 15 15 14 14 15 15 15 16 17 17 18 18 18 19 19 20 21 22 22 22 22 23 23 23 23 23 22
12 14 14 14 14 14 14 15 17 18 16 16 15 14 18 20 19 19 18 14 12 9 9 13 14 16 19 19 18 19 18 17 17 16 17 17 18 18 19 18 19 18 17 17 16 16 16 16 16 16 16 17 17 18 18 19 20 21 21 22 22 23 24 25 26 27 27 28 28 28 28 28 27 27
13 13 14 14 14 13 14 15 16 18 18 16 15 15 16 18 18 22 22 16 13 11 10 12 14 16 17 17 19 21 18 17 18 18 18 19 19 19 20 20 19 19 18 18 18 18 18 18 18 18 18 19 19 20 21 21 23 23 24 25 26 26 27 28 29 30 31 32 32 33 33 32 31 31
12 13 13 13 13 13 15 16 15 17 19 18 16 16 17 16 17 22 23 18 15 14 11 11 14 17 17 16 17 20 19 16 16 16 18 20 21 21 21 21 20 20 19 19 20 20 19 19 19 19 20 21 22 22 23 24 25 25 26 27 28 29 30 31 32 33 34 36 36 37 37 36 35 35
11 12 13 13 12 13 14 15 16 16 19 21 19 18 18 16 16 19 21 18 16 14 12 10 11 13 16 15 13 17 19 17 14 14 14 16 19 21 22 22 20 20 20 20 20 20 20 20 21 21 21 22 23 23 24 25 26 27 28 30 31 32 33 33 34 34 35 35 35 35 35 35 35 36
10 13 16 14 11 13 14 15 17 17 18 20 19 18 19 17 16 17 18 17 14 11 10 11 10 10 12 13 11 12 15 15 15 16 16 14 14 17 20 21 21 20 20 20 19 19 20 20 21 22 22 23 24 25 26 28 28 29 29 28 28 28 28 27 27 26 26 26 26 27 27 29 30 31
11 13 16 14 11 12 14 17 19 19 18 18 16 17 19 19 17 14 13 15 16 14 11 11 10 9 10 12 13 14 16 17 16 18 21 18 12 10 12 15 19 20 19 18 18 18 20 21 21 23 24 25 25 24 24 24 22 21 20 20 19 19 19 19 19 20 20 21 21 22 23 24 24 25
11 12 13 13 13 13 14 17 18 17 17 18 17 17 19 19 17 13 11 15 19 18 15 12 11 11 11 13 16 18 20 21 17 16 21 18 11 9 9 10 15 19 17 15 15 14 16 18 18 19 19 18 17 15 14 14 14 14 14 15 15 16 17 18 19 19 20 20 21 21 22 22 22 23
11 11 11 11 12 13 14 15 16 15 16 18 18 18 18 19 19 16 15 17 19 18 15 13 14 14 12 14 18 18 18 20 19 17 18 15 10 9 9 8 9 11 11 10 10 10 11 13 12 11 10 9 9 9 10 11 12 13 14 15 16 17 18 19 19 20 20 20 21 21 22 22 23 22
10 10 11 10 10 11 13 13 14 16 16 17 18 18 18 19 20 19 19 19 19 19 16 12 14 16 14 14 18 19 18 19 19 17 16 14 12 10 10 8 5 5 7 8 7 7 8 9 9 7 6 7 10 12 12 13 14 14 16 16 17 17 17 18 18 18 19 20 20 21 21 21 22 22
10 10 10 10 11 12 13 13 13 15 15 16 17 18 18 18 19 20 21 21 20 22 21 15 14 17 15 13 17 22 22 20 19 17 15 15 13 10 8 5 4 4 7 6 6 6 4 4 6 6 4 7 12 14 14 15 16 16 17 17 16 16 16 16 17 18 19 21 21 22 22 22 22 21
12 11 11 12 13 13 13 13 13 14 16 16 17 17 16 16 17 17 19 19 19 20 22 20 18 19 18 14 14 18 20 18 15 14 13 13 11 8 5 4 4 4 6 4 4 5 2 2 6 5 5 7 11 14 15 16 16 16 16 14 13 14 15 16 19 20 21 22 23 23 24 23 23 22
14 14 13 14 15 14 14 15 15 16 17 16 15 14 12 11 11 10 11 15 17 16 17 17 17 17 18 17 14 14 16 16 12 10 10 10 8 8 6 5 5 4 3 3 3 4 3 4 6 6 6 9 12 13 15 16 16 15 13 11 12 14 17 19 21 22 22 23 23 24 24 24 23 22
16 15 15 15 16 17 17 17 16 16 16 16 15 13 12 10 8 6 4 5 9 10 12 13 13 11 12 12 11 11 12 12 10 8 8 8 8 8 7 6 7 4 3 3 2 3 4 4 5 7 8 11 14 14 14 15 15 13 10 12 16 19 20 21 21 22 22 22 23 24 24 24 23 21
18 17 17 16 17 18 18 17 16 16 16 17 18 19 20 20 20 19 17 13 11 12 13 13 12 12 13 13 13 12 11 11 11 9 8 8 7 5 4 4 5 4 3 3 1 2 4 4 6 8 9 11 13 13 11 10 11 10 12 17 19 19 18 19 19 20 21 22 23 23 23 23 22 20
19 19 18 18 18 19 18 18 18 17 17 20 23 24 25 25 25 25 24 22 20 19 18 17 16 15 15 14 13 12 10 9 9 7 5 6 5 3 2 2 4 5 3 2 1 2 4 5 6 7 9 9 10 8 6 6 9 11 15 17 17 16 16 17 18 19 20 21 21 22 22 21 20 18
17 17 17 19 20 20 20 20 20 19 19 21 22 22 23 25 25 25 24 24 23 21 19 16 13 13 13 12 10 10 9 7 6 5 5 5 6 5 4 3 2 3 3 2 2 2 3 4 4 5 7 7 5 4 4 7 11 12 13 13 14 16 17 17 17 18 18 19 19 20 20 19 17 12
14 14 15 17 19 21 22 23 23 23 21 20 20 21 22 25 25 25 24 21 20 19 18 17 15 15 14 13 12 11 10 10 9 8 7 7 6 5 3 2 1 1 2 3 4 3 3 4 4 4 5 5 5 5 7 10 11 11 11 12 13 15 16 16 16 17 18 19 20 20 19 19 16 9
16 14 15 16 19 22 25 24 24 23 21 20 21 21 22 23 25 25 23 20 19 19 20 20 19 18 16 15 13 12 10 9 9 8 6 6 5 4 3 1 1 1 1 4 6 3 2 3 4 4 4 5 6 7 8 9 8 8 11 13 13 13 15 17 17 17 20 21 20 19 18 17 15 9
20 18 16 15 16 19 21 20 19 19 19 20 20 20 20 22 24 24 24 23 21 20 20 19 18 17 15 14 13 11 10 8 7 6 5 5 5 5 4 3 2 2 1 4 4 2 1 2 2 4 4 5 6 7 7 7 6 7 10 12 12 13 15 17 17 17 19 19 18 18 17 15 14 10
25 24 22 19 16 17 17 16 15 16 17 18 19 20 21 22 22 22 23 22 21 20 18 17 17 15 14 13 12 11 10 9 8 7 7 6 6 5 5 5 5 4 2 1 2 2 2 2 2 3 4 5 6 6 7 7 7 9 12 13 13 13 13 13 14 14 15 14 13 14 13 12 12 9
28 28 27 24 21 21 21 21 21 21 21 22 23 23 22 21 20 20 20 19 19 18 17 16 15 14 12 12 12 11 11 10 10 9 8 8 8 7 7 7 6 5 4 3 3 4 4 3 3 3 4 5 6 6 7 9 10 12 13 14 14 13 11 11 12 12 11 10 10 10 8 7 7 5
29 29 28 27 26 26 26 26 27 27 25 24 23 22 20 19 17 17 17 16 16 17 17 16 15 15 14 14 13 13 12 12 11 11 10 9 9 9 9 9 8 7 6 5 5 6 5 4 3 3 3 4 5 6 8 10 11 11 12 13 13 12 10 11 12 12 12 12 11 10 7 5 5 3
28 28 27 27 27 27 27 27 28 27 25 22 20 18 17 15 14 12 12 13 14 16 18 18 16 16 16 15 14 14 14 13 12 12 12 11 11 11 10 9 9 9 8 8 8 8 7 6 6 6 5 5 5 6 7 9 10 10 10 11 13 12 11 12 13 13 13 13 12 10 8 6 5 4
27 27 27 27 27 27 26 26 26 25 22 20 18 15 13 12 11 10 9 11 14 17 18 18 18 17 16 16 15 15 15 15 14 13 13 13 12 12 11 9 8 8 8 9 10 10 10 9 8 7 6 5 5 6 7 7 8 9 10 11 12 12 12 13 13 13 12 11 10 9 8 6 5 4
27 26 26 25 25 24 24 23 23 21 19 18 16 14 13 11 10 10 11 13 16 18 18 19 19 18 16 16 16 16 15 15 15 14 14 14 13 12 10 8 7 6 7 8 10 11 12 11 8 6 4 3 4 5 6 6 7 8 10 11 11 11 12 13 14 13 12 10 9 8 7 7 7 5
21 20 20 19 18 18 18 18 19 18 17 16 16 15 15 15 15 15 15 16 17 18 18 19 18 17 16 16 15 14 13 11 12 14 15 15 14 12 10 9 8 7 7 8 9 10 11 11 8 5 4 3 4 6 6 6 6 9 10 10 11 12 12 13 13 13 12 10 9 9 8 8 9 6
16 16 16 15 14 14 14 14 14 14 14 15 15 16 18 18 18 18 18 18 18 18 18 18 17 17 15 13 12 11 10 8 9 12 14 14 12 11 9 9 9 8 8 8 8 9 11 10 7 3 3 4 4 6 9 8 7 9 10 11 11 12 12 12 12 12 12 10 10 10 9 9 8 5
15 15 15 15 14 14 14 14 14 14 14 15 16 17 18 18 18 19 19 18 18 18 18 18 17 17 16 14 12 10 9 7 7 8 9 10 10 10 9 9 10 9 8 8 8 8 9 10 9 5 2 1 2 2 8 11 10 10 11 11 11 11 11 11 11 12 12 12 11 11 11 10 8 5
14 14 15 16 15 15 15 15 15 15 15 16 17 19 19 18 18 18 18 18 18 19 19 19 18 17 16 15 13 11 10 9 8 7 8 9 9 9 9 9 9 8 8 7 7 8 8 9 9 7 5 4 2 0 4 9 11 11 11 10 10 10 10 11 11 11 12 13 12 11 10 10 8 6
12 12 13 14 14 14 14 14 15 16 17 18 18 19 19 19 19 19 19 18 19 20 20 20 19 17 16 15 14 13 14 13 12 10 9 9 9 8 8 8 7 7 7 7 7 7 7 7 8 8 6 5 4 3 5 8 10 11 11 9 9 10 10 11 11 11 11 11 10 9 9 8 7 6
10 11 12 13 13 13 13 14 16 17 18 18 19 20 20 20 20 20 20 20 20 21 21 21 20 19 18 17 14 13 13 13 12 11 10 9 9 8 7 7 6 6 6 7 7 6 7 7 7 8 8 6 5 5 7 8 9 10 10 9 9 9 10 10 10 10 9 8 7 6 7 7 6 6
10 11 12 12 12 13 14 16 17 18 19 19 20 21 21 21 21 21 20 20 21 21 21 20 20 19 18 18 16 14 13 12 11 10 10 9 9 8 7 7 6 6 6 7 7 7 7 8 8 7 7 6 6 6 8 9 9 8 7 8 9 9 9 10 10 8 7 6 6 4 4 5 7 7
11 11 12 12 13 14 16 18 19 19 20 20 21 21 21 21 21 20 20 19 19 19 19 18 18 17 17 16 16 14 14 13 13 12 11 11 11 11 9 6 6 6 6 6 7 8 7 8 8 8 6 6 5 6 6 6 5 4 4 6 9 10 9 9 9 7 6 6 6 5 4 5 6 7
12 12 12 12 13 15 17 18 19 20 20 20 20 20 20 20 19 18 18 17 17 17 16 16 15 15 15 16 15 14 12 12 12 12 12 10 10 10 10 7 6 7 7 7 8 9 9 9 9 8 6 5 5 4 3 2 3 4 4 5 7 10 9 8 7 7 7 6 6 5 5 5 6 7
14 13 12 12 14 16 18 19 20 20 19 19 18 18 17 17 16 16 16 15 15 15 15 15 15 15 14 14 15 15 14 13 13 13 12 10 8 8 8 7 7 8 8 9 9 9 9 10 9 6 5 4 3 3 3 4 5 6 6 5 6 8 8 6 6 7 8 8 8 7 7 6 6 7
13 12 11 12 15 18 19 19 19 18 17 16 16 15 15 15 14 14 14 13 14 14 14 14 14 14 14 13 14 14 13 12 12 12 12 11 10 8 8 8 9 9 9 8 9 9 8 9 8 6 4 4 4 3 3 5 6 6 6 5 5 5 5 5 5 6 7 9 9 8 8 8 7 7
13 12 12 14 15 17 18 17 15 15 14 13 14 13 13 13 13 12 12 12 12 12 12 13 13 13 13 12 12 11 10 11 11 10 9 9 9 9 9 9 9 9 8 8 8 9 9 9 8 7 6 6 6 5 3 3 5 5 5 4 4 4 3 3 3 4 5 6 6 6 6 6 6 6
14 13 14 14 14 14 14 13 12 13 13 12 12 12 12 12 11 10 10 11 10 10 11 11 10 10 10 9 9 9 9 9 9 9 8 8 9 9 9 9 8 7 8 8 8 8 9 9 9 8 7 7 6 5 4 3 4 5 4 3 4 4 4 4 4 4 3 3 6 7 5 4 4 5
Wind_Direction
220 221 219 219 223 224 224 224 223 222 216 206 201 197 192 186 179 180 190 199 200 196 195 195 199 208 212 211 208 205 205 209 206 203 203 204 203 197 191 189 186 179 176 175 173 172 171 169 164 161 158 157 158 155 152 150 153 157 148 130 90 34 8 353 357 358 357 353 352 356 354 354 357 355
221 221 220 222 225 224 224 227 226 225 220 211 207 208 206 203 197 188 188 199 197 191 192 195 196 205 211 213 210 208 210 208 208 211 211 209 205 199 194 192 187 183 180 179 180 180 180 178 173 172 171 172 176 177 176 179 186 204 232 256 277 296 304 305 308 310 314 320 325 330 333 336 340 341
220 223 226 227 224 222 225 227 228 228 224 215 210 212 211 211 209 203 202 204 195 191 194 196 196 202 209 212 212 211 213 211 209 213 215 214 209 202 199 196 191 188 187 186 188 191 192 192 189 187 189 192 199 205 209 213 222 239 255 269 279 286 291 294 297 299 302 306 311 315 319 322 325 327
215 220 226 227 224 223 224 225 227 229 226 218 212 213 214 214 213 211 216 218 188 189 194 192 197 206 210 213 215 215 216 216 212 214 217 216 210 206 206 204 198 194 193 193 195 199 202 205 204 203 205 209 218 227 234 240 245 254 263 271 278 283 288 292 295 297 299 302 305 308 311 314 315 316
211 217 222 221 221 223 223 222 222 222 222 217 213 215 214 214 214 213 217 221 191 183 193 192 200 210 212 214 216 217 219 220 216 216 219 218 213 211 211 210 207 203 199 199 201 204 209 213 215 216 218 223 232 240 247 254 258 263 268 272 277 281 285 289 292 294 296 298 300 302 303 305 306 306
211 219 221 216 219 224 222 219 218 217 217 213 212 214 213 213 216 214 214 217 203 182 190 195 202 211 212 212 215 217 219 221 221 221 222 221 218 216 214 214 215 211 207 208 209 211 215 219 222 226 230 234 241 248 255 260 265 269 272 275 278 281 284 287 289 290 291 292 293 295 296 297 297 297
212 217 216 212 219 223 218 215 216 217 214 210 209 210 211 215 219 215 212 213 209 188 184 194 201 209 212 212 215 218 219 220 222 226 228 228 226 224 221 219 220 218 215 215 218 220 223 227 231 234 239 244 248 254 260 265 270 273 276 279 282 284 286 288 288 289 289 289 289 289 290 290 290 290
212 214 213 210 213 215 210 209 213 214 212 210 209 208 210 213 216 216 214 214 210 197 187 192 196 207 212 212 216 219 220 221 222 224 229 231 231 232 230 227 227 225 222 222 225 228 231 234 238 242 246 251 256 260 265 269 273 276 279 281 283 285 287 288 289 289 289 289 289 289 288 288 287 285
211 213 213 209 207 207 208 208 210 213 214 211 209 211 211 210 214 220 220 216 208 205 199 192 195 205 209 209 216 220 219 219 222 224 227 230 232 234 235 234 234 232 230 230 231 233 237 240 244 248 253 257 261 264 268 271 274 277 279 282 284 286 287 289 289 290 290 290 290 289 288 287 285 283
214 214 214 213 209 208 211 211 209 210 213 213 211 212 213 209 212 220 221 215 210 213 210 195 195 204 205 205 214 220 217 212 214 218 224 230 232 234 237 238 238 238 237 237 238 240 243 247 250 253 257 261 264 267 270 272 275 278 281 283 285 286 288 289 289 290 290 290 289 288 287 285 283 281
216 216 217 218 215 214 214 212 208 207 210 215 215 213 214 212 210 216 218 212 208 211 210 203 197 200 204 202 207 217 218 214 213 213 216 226 231 234 238 239 239 242 242 243 246 247 249 253 256 259 262 263 265 268 271 274 277 280 282 285 287 289 289 290 290 290 289 289 288 288 287 286 284 281
220 222 225 223 218 219 216 210 211 210 211 215 216 214 215 215 212 215 213 206 207 213 211 208 199 191 199 200 199 208 210 208 215 218 216 221 226 230 237 241 242 245 247 249 252 253 255 258 261 265 267 267 269 271 274 277 280 283 286 288 290 290 290 290 290 290 290 290 290 290 289 288 286 283
218 222 227 226 222 222 219 216 218 218 214 216 218 217 218 216 215 214 202 200 216 228 223 213 201 192 198 198 195 203 209 210 214 219 222 224 223 221 232 242 245 247 250 252 254 257 261 264 266 269 271 273 276 278 280 282 285 287 289 290 291 291 293 294 296 296 297 296 296 295 294 291 288 285
216 215 222 226 227 229 226 222 224 225 223 223 224 226 226 223 218 207 189 198 214 220 218 211 202 201 204 204 205 211 218 218 213 216 222 222 218 221 229 238 248 252 253 253 255 258 262 267 270 269 271 278 284 285 287 290 291 291 291 293 295 298 301 303 304 305 304 303 303 301 299 297 294 290
214 210 210 215 221 225 225 225 227 229 229 228 228 231 233 232 228 217 204 206 213 217 217 210 207 210 212 213 215 216 218 219 216 214 219 217 209 218 226 227 240 250 251 252 253 252 256 263 266 266 269 279 286 286 289 293 295 296 298 301 304 306 309 310 311 311 311 310 309 307 305 302 298 295
208 205 203 203 206 212 217 223 226 227 227 227 228 230 231 232 233 229 220 215 216 222 224 213 208 216 219 221 223 220 215 216 216 213 215 216 209 212 224 224 214 223 236 242 248 250 255 262 264 267 274 284 292 295 299 303 306 307 308 309 310 312 313 314 314 314 315 315 314 313 311 309 305 302
201 198 197 198 202 206 208 213 219 221 220 221 223 227 229 230 231 231 227 222 219 222 228 228 224 224 224 224 229 228 221 215 211 209 211 214 212 211 221 211 176 211 234 244 262 259 246 261 278 285 296 303 305 307 310 313 314 314 313 312 313 315 316 317 317 317 318 318 317 316 314 313 312 310
205 203 198 197 199 199 200 204 209 211 212 212 213 216 220 222 228 231 231 230 226 223 226 230 231 232 231 230 232 231 224 215 209 207 206 208 205 198 192 171 158 203 220 222 265 263 239 308 309 307 310 313 313 313 313 314 316 314 310 310 314 318 319 318 318 318 318 317 317 316 315 314 312 311
215 212 206 203 201 201 202 204 205 205 202 195 191 191 191 198 215 228 234 237 236 230 230 231 230 229 228 227 225 218 210 206 207 208 204 199 187 168 158 144 126 139 181 196 243 266 282 319 316 307 312 318 316 314 314 315 311 304 299 305 314 315 314 313 312 312 312 311 311 311 311 311 311 309
212 209 205 205 206 205 204 202 202 201 192 178 168 159 145 138 138 126 134 215 223 214 214 217 212 201 195 193 185 176 176 179 180 177 167 152 145 146 145 134 126 136 218 232 229 263 280 311 322 313 315 318 313 312 314 311 304 296 294 309 315 313 310 309 308 308 307 307 307 306 307 309 310 309
202 200 200 202 202 202 199 193 191 192 182 165 153 143 131 124 117 111 109 114 122 132 139 142 138 134 136 137 134 133 138 142 138 134 128 128 139 151 148 141 144 159 224 243 231 278 290 323 329 314 311 313 312 313 312 304 296 289 297 311 315 313 310 308 307 307 307 307 307 306 307 309 310 310
193 195 195 195 196 197 193 185 181 183 174 158 149 142 133 125 119 118 119 118 117 118 117 113 112 114 119 120 119 121 129 138 140 139 136 132 135 141 141 152 155 150 165 215 310 324 308 318 321 313 313 314 311 311 307 300 301 303 311 320 322 318 314 310 308 309 310 311 312 312 314 315 314 313
181 186 187 188 192 190 182 176 173 174 171 163 157 151 143 132 126 126 128 126 125 126 124 122 124 124 122 119 117 117 120 125 130 140 146 129 114 121 141 163 185 170 167 208 294 316 302 309 326 330 325 318 309 303 304 309 314 316 322 330 329 323 320 317 314 315 318 321 322 323 324 324 323 316
159 165 170 175 181 178 171 170 169 168 171 170 166 161 154 144 139 138 136 135 135 133 128 124 122 118 115 113 111 108 104 102 104 116 133 129 111 107 122 146 208 190 167 238 284 312 312 307 324 330 320 305 295 296 305 311 316 322 329 332 329 328 330 330 329 331 332 330 331 332 333 332 331 320
138 143 149 155 165 168 167 168 170 171 174 174 168 164 160 153 148 145 139 136 134 129 122 118 114 109 106 105 104 101 98 98 99 103 114 122 120 122 126 152 215 108 140 261 285 310 310 300 321 325 310 293 289 294 301 306 311 320 328 329 330 334 339 340 340 341 339 335 334 335 337 338 335 324
122 123 126 133 150 161 163 165 167 168 170 168 161 157 153 149 146 143 137 134 130 123 119 115 111 107 105 103 101 98 95 94 96 98 103 111 121 131 136 148 163 147 181 269 292 323 312 305 334 327 315 305 297 297 301 305 315 326 330 331 332 336 341 343 342 341 341 340 338 338 341 343 340 331
115 113 114 118 131 142 144 144 144 145 147 145 138 136 136 137 137 137 135 133 129 124 121 117 110 105 104 102 99 99 98 96 97 98 98 98 102 110 122 134 146 152 167 261 348 32 30 4 351 331 320 312 307 310 315 321 330 334 333 333 333 332 336 340 339 338 341 341 337 337 342 345 343 341
110 110 111 115 120 123 123 122 122 121 122 122 123 124 127 129 131 132 131 131 129 124 120 114 108 104 103 100 98 100 102 101 99 95 94 99 105 109 111 112 113 114 110 87 53 40 37 24 354 336 326 319 320 327 329 331 335 335 333 331 329 327 327 332 336 337 338 338 333 331 335 336 335 335
109 110 112 114 115 116 117 117 115 113 114 116 118 120 122 123 125 126 127 129 129 124 118 113 108 106 105 103 104 106 107 107 103 100 101 104 107 108 106 101 98 96 91 82 63 43 38 33 5 349 348 342 342 340 334 330 329 329 329 327 325 325 325 330 336 337 334 333 330 326 324 322 314 288
110 112 114 114 114 114 115 115 114 113 114 116 116 115 115 113 113 116 121 125 126 123 120 116 112 109 109 109 109 109 108 106 104 105 109 112 114 114 110 101 95 90 82 77 70 57 47 39 29 25 19 4 350 342 334 328 325 325 328 329 329 332 334 335 337 337 333 330 327 322 320 318 309 286
105 107 108 108 108 108 110 111 113 114 115 115 112 107 100 94 94 102 115 123 123 121 120 118 115 114 113 112 110 108 105 102 100 101 105 109 115 116 111 101 94 89 80 70 61 54 50 45 38 33 21 3 355 348 334 326 326 329 335 340 340 340 341 342 343 344 341 336 330 327 325 323 318 303
100 99 97 96 95 95 95 96 97 99 100 101 102 102 99 96 98 106 115 121 122 121 120 119 117 115 112 109 107 105 102 99 98 97 97 99 102 103 99 91 85 81 72 58 46 43 45 45 42 40 30 13 8 357 341 335 342 343 343 349 352 351 352 355 356 354 352 348 341 338 335 331 327 311
97 91 88 85 83 80 77 76 77 80 83 89 95 102 110 115 118 121 122 123 123 122 122 120 117 114 110 106 102 99 94 92 93 95 95 93 91 88 84 78 70 61 50 41 32 29 32 36 41 49 65 77 59 29 7 349 353 360 0 1 4 6 8 9 7 3 2 360 357 357 353 342 333 316
94 91 90 90 90 88 84 82 83 85 90 97 103 109 115 119 123 126 126 125 123 122 119 117 115 112 108 104 100 96 91 86 88 92 93 88 81 75 71 69 63 54 44 37 25 15 15 20 24 45 94 114 96 56 37 20 5 8 13 14 15 16 15 13 10 7 8 9 9 7 4 355 345 330
99 101 103 104 105 106 105 106 108 110 112 115 117 118 118 120 122 123 122 120 119 116 113 111 109 108 105 102 99 97 95 91 88 87 83 77 72 68 65 62 57 49 43 37 25 15 11 11 12 17 37 170 196 82 45 32 21 19 20 20 20 19 13 8 7 7 8 12 14 13 10 7 359 344
109 110 112 113 114 115 115 119 122 124 126 128 127 125 121 120 120 118 115 115 114 111 109 108 105 103 100 99 96 94 92 89 84 77 72 67 66 65 62 60 57 51 44 38 30 25 21 16 14 10 360 345 311 327 36 29 25 24 22 17 13 10 3 358 359 4 9 11 12 13 13 13 12 8
120 120 118 119 120 119 121 127 131 132 132 131 129 126 121 117 114 112 111 111 109 106 105 104 102 100 98 95 91 89 87 84 78 72 67 61 59 59 57 57 56 49 43 39 33 28 27 26 23 17 6 359 359 6 13 18 20 18 13 5 357 352 348 346 351 1 8 10 12 14 15 14 16 19
128 128 125 123 124 125 129 134 136 135 134 130 126 121 117 114 112 110 109 107 104 102 102 100 99 98 96 93 89 85 82 79 75 70 66 62 59 57 54 52 48 40 38 39 37 34 32 28 25 24 20 13 10 6 359 356 1 3 360 355 350 346 347 351 357 2 5 10 16 20 22 24 26 31
131 132 129 128 129 131 133 136 137 135 132 128 123 118 114 112 110 107 105 104 101 100 99 98 97 96 93 90 87 85 83 82 79 73 69 65 59 53 49 46 36 25 28 37 37 36 34 27 23 22 17 7 2 354 338 329 333 341 345 351 358 0 1 3 5 6 9 10 9 9 22 33 35 39
129 130 128 128 132 134 135 135 135 132 128 124 121 118 115 112 110 107 104 103 101 99 98 97 95 93 91 88 86 84 83 82 80 75 70 65 59 53 49 46 30 18 23 31 30 26 25 17 8 2 359 353 350 342 325 311 314 326 335 352 7 16 19 15 11 12 13 5 359 7 30 39 37 40
130 128 126 128 133 135 136 134 132 129 126 123 120 118 115 112 109 108 106 104 103 101 99 99 98 94 91 89 86 84 81 77 73 70 65 59 55 51 49 46 32 22 24 26 23 18 12 4 357 354 358 2 353 336 327 336 2 5 1 2 9 15 23 29 27 25 23 11 4 15 33 44 52 55
130 126 125 130 135 136 136 133 131 127 125 123 120 118 115 112 109 108 107 106 106 104 101 100 99 94 91 88 85 83 80 74 68 65 61 55 51 48 47 42 33 25 22 21 19 13 4 0 360 358 358 357 347 346 15 33 31 26 23 19 8 8 18 37 47 46 43 40 36 35 32 32 45 54
128 122 122 128 134 135 133 131 129 127 125 124 123 120 117 114 111 109 109 109 108 106 101 97 93 90 88 88 85 82 78 73 67 64 61 55 50 46 44 40 32 26 21 18 18 16 10 8 10 16 21 19 16 27 39 34 30 30 29 26 14 6 13 32 42 42 45 47 45 42 32 24 27 37
126 121 123 126 128 130 129 127 127 127 126 127 127 125 121 117 113 110 110 110 109 106 100 94 89 85 82 82 81 79 75 71 66 63 60 55 48 43 40 35 31 27 23 21 23 24 23 24 27 35 42 40 37 42 48 32 23 24 21 12 2 2 15 29 21 18 30 33 25 20 20 21 24 28
129 125 128 128 127 127 127 124 124 125 125 126 128 127 125 121 115 110 108 108 107 105 100 93 87 82 78 76 77 75 69 63 59 55 52 49 43 39 35 31 29 30 27 23 22 22 26 33 39 41 42 42 40 46 51 34 15 13 13 7 360 2 12 11 352 342 358 16 2 356 358 1 1 6